Regional Weather Roundup
Issued by NWS

Home | Current Version | Previous Version | Text Only | Print | Product List | Glossary Off
Versions: 1 2 3 4 5 6 7 8 9 10 11 12 13 14 15 16 17 18 19 20 21 22 23 24 25 26 27 28 29 30 31 32 33 34 35 36 37 38 39 40 41 42 43 44 45 46 47 48 49 50

000
ASUS45 KBOU 280907
RWRCO

WEATHER ROUNDUP FOR COLORADO
NATIONAL WEATHER SERVICE DENVER/BOULDER CO
300 AM MDT TUE APR 28 2015

NOTE: "FAIR" INDICATES FEW OR NO CLOUDS BELOW 12000 FEET WITH NO
SIGNIFICANT WEATHER AND/OR OBSTRUCTIONS TO VISIBILITY.

COZ001>005-013-030-031-281000-
...NORTHWEST COLORADO...

CITY           SKY/WX    TMP DP  RH WIND       PRES   REMARKS
CRAIG          CLEAR     33  31  92 SW5       30.29R WCI  29
HAYDEN         CLEAR     37  34  87 S3        30.28S
MEEKER         CLEAR     35  32  88 CALM      30.28S
MOUNT WERNER   NOT AVBL
STEAMBOAT SPGS CLOUDY    37  35  90 CALM      30.29R
WALDEN         PTCLDY    23  19  86 E3        30.32S
$$

COZ006>008-011-281000-
...WEST CENTRAL VALLEYS...

CITY           SKY/WX    TMP DP  RH WIND       PRES   REMARKS
GRAND JUNCTION PTCLDY    50  40  68 CALM      30.20S
MONTROSE       CLOUDY    47  39  74 CALM      30.25R
EAGLE          PTCLDY    41  39  93 CALM      30.29F
RIFLE          CLEAR     41  37  86 E5        30.24R
DELTA          CLOUDY    52  44  75 MISG      30.22S
NUCLA          PTCLDY    43  36  75 E10       30.26R
$$

COZ017>023-064>068-281000-
...SOUTHWEST COLORADO...

CITY           SKY/WX    TMP DP  RH WIND       PRES   REMARKS
DURANGO        CLOUDY    41  39  93 SE3       30.24S
CORTEZ         CLOUDY    45  38  76 NE5       30.22R
PAGOSA SPRINGS MOCLDY    38  26  61 NE6       30.27S
TELLURIDE      PTCLDY    34  33  96 CALM      30.31S
WOLF CREEK PAS NOT AVBL
$$

COZ009-010-012-014-032>034-037-058>063-281000-
...CENTRAL COLORADO...

CITY           SKY/WX    TMP DP  RH WIND       PRES   REMARKS
ASPEN          CLEAR     33  29  85 S3        30.29S
BUENA VISTA    CLOUDY    35  32  90 SE7       30.36S WCI  29
COPPER MTN     PTCLDY    27  16  63 W5        30.38F WCI  21
BERTHOUD PASS  HAZE      16   9  73 SE7       30.41S VSB<1/4 WCI   6
COTTONWOOD PAS CLOUDY    32  30  93 CALM      30.38S
GUNNISON       CLEAR     32  23  69 N5        30.34R WCI  27
KREMMLING      CLEAR     32  28  86 SE3       30.32S
LEADVILLE      CLOUDY    23  22  96 NE3       30.36S
MONARCH PASS   CLOUDY    21  19  93 E38       30.46R WCI   1
SALIDA         CLOUDY    37  32  84 CALM      30.44R
SUNLIGHT       FOG       34  34 100 CALM      30.39S VSB 1/2
WILKERSON PASS CLOUDY    23  21  93 NE5       30.42S FOG     WCI  17
$$

COZ069>075-281000-
...SAN LUIS VALLEY/SANGRE DE CRISTO MOUNTAINS...

CITY           SKY/WX    TMP DP  RH WIND       PRES   REMARKS
ALAMOSA        CLEAR     26  23  88 W7        30.31S WCI  18
LA VETA PASS   FOG       27  25  93 MISG      30.35S VSB 1/2
SAGUACHE       CLEAR     28  27  93 N5        30.33S WCI  23
$$

COZ035-036-038>040-281000-
...NORTHERN COLORADO FRONT RANGE...

CITY           SKY/WX    TMP DP  RH WIND       PRES   REMARKS
DENVER INTL AP CLOUDY    41  39  93 NW5       30.35S
DMNS CITY PARK   N/A     42  37  81 N3        30.35S
AURORA         MOCLDY    40  40 100 CALM      30.36S
FRONT RANGE AP CLOUDY    43  41  93 NW5       30.36F FOG
ERIE MUNI ARPT MOCLDY    42  39  89 CALM      30.35F
BOULDER MUN AP CLOUDY    43  37  81 CALM      30.34F
CENTENNIAL     CLOUDY    41  38  89 W3        30.35S
BROOMFIELD     CLOUDY    41  37  87 NE3       30.35S
FORT COLLINS   MOCLDY    43  37  81 CALM      30.36S
LONGMONT       CLOUDY    44  38  81 CALM      30.36F
$$

COZ041-046-047-076>085-087-088-281000-
...PIKES PEAK/PALMER DIVIDE AND SOUTHERN FOOTHILLS...

CITY           SKY/WX    TMP DP  RH WIND       PRES   REMARKS
COLO. SPRINGS  CLOUDY    41  33  73 N8        30.35F
A. F. ACADEMY  CLOUDY    37  35  92 N6        30.35F
ELLICOTT       MOCLDY   N/A N/A N/A NE8       30.33F
FALCON         CLOUDY    38  31  77 NW7       30.36F
FORT CARSON    CLOUDY    41  33  71 NW9       30.33S
LIMON          CLOUDY    41  38  89 N13       30.33S
MONUMENT HILL  CLOUDY    34  32  93 W5        30.35F WCI  30
TRINIDAD       MOCLDY    38  35  89 W8        30.32R
$$

COZ042>045-048>051-090-091-281000-
...NORTHEAST COLORADO...

CITY           SKY/WX    TMP DP  RH WIND       PRES   REMARKS
GREELEY ARPT   MOCLDY    43  36  75 W5        30.35S
AKRON          CLOUDY    44  41  89 NE10      30.32F
BURLINGTON     CLOUDY    44  38  79 NW10      30.27F
WRAY           CLOUDY    46  41  81 N13       30.30S
STERLING       CLOUDY    45  43  93 N5        30.32S
HOLYOKE        CLOUDY    46  41  81 N6        30.31S
FORT MORGAN    CLOUDY    45  41  85 NE8       30.34S
$$

COZ086-089-092>099-281000-
...SOUTHEAST COLORADO...

CITY           SKY/WX    TMP DP  RH WIND       PRES   REMARKS
PUEBLO         CLOUDY    45  37  73 N8        30.32S
LA JUNTA       MOCLDY    44  39  82 N12       30.29S
LAMAR          CLEAR     39  35  86 E8        30.26R
SPRINGFIELD      N/A     35  31  85 NW9       30.25S WCI  28
$$


USA.gov is the U.S. government's official web portal to all federal, state and local government web resources and services.